Location: Newark
(44.3681°N, 100.3364°W)
Time: 08:49:12
(UTC+00:00)

S-56A Canister/Altair - Pass Details

Date: 03 March 2020
Orbit: 634 x 2498 km, 38.9° (Epoch: 28 March)

Event Time Altitude Azimuth Distance (km) Brightness Sun altitude
Rises 22:02:04 0° 283° (WNW) 6,137 12.7 23.9°
Reaches altitude 10° 22:07:31 10° 270° (W) 5,164 12.7 23.1°
Maximum altitude 22:17:08 21° 230° (SW) 4,170 14.2 21.7°
Drops below altitude 10° 22:25:57 10° 188° (S) 4,644 12.2 20.4°
Sets 22:30:32 0° 173° (S) 5,366 12.2 19.7°
